Skip Page Navigation
NASA JPL Caltech
NASA Logo - Jet Propulsion Laboratory + View the NASA Portal
+ Near-Earth Object (NEO) Program
Search JPL
JPL Home Earth Solar System Stars & Galaxies Technology
JPL Solar System Dynamics
BODIES ORBITS EPHEMERIDES TOOLS PHYSICAL DATA DISCOVERY FAQ SITE MAP
JPL Small-Body Database Browser
Search: [ help ]  
10812 Grotlingbo (1993 FZ25)
Classification: Main-belt Asteroid          SPK-ID: 2010812
Ephemeris | Orbit Diagram | Orbital Elements | Physical Parameters | Discovery Circumstances | Close-Approach Data ]

[ show orbit diagram ]
Orbital Elements at Epoch 2457000.5 (2014-Dec-09.0) TDB
Reference: JPL 11 (heliocentric ecliptic J2000)
 Element Value Uncertainty (1-sigma)   Units 
e .1123172634751419 5.0962e-08  
a 3.031824176010911 2.894e-08 AU
q 2.691297981223589 1.5318e-07 AU
i 1.85816977051597 5.8042e-06 deg
node 252.8083579936622 0.00023902 deg
peri 187.1849436245347 0.00024302 deg
M 135.2054932056267 4.2213e-05 deg
tp 2456276.320410386965
(2012-Dec-14.82041039)
0.00022208 JED
period 1928.210504466716
5.28
2.7608e-05
7.559e-08
d
yr
n .1867016070942757 2.6732e-09 deg/d
Q 3.372350370798233 3.219e-08 AU
  Orbit Determination Parameters
   # obs. used (total)      977  
   data-arc span      7765 days (21.26 yr)  
   first obs. used      1993-03-21  
   last obs. used      2014-06-24  
   planetary ephem.      DE431  
   SB-pert. ephem.      SB431-BIG16  
   condition code      0  
   fit RMS      .55394  
   data source      ORB  
   producer      Otto Matic  
   solution date      2014-Aug-13 14:17:37  

Additional Information
 Earth MOID = 1.70663 AU 
 T_jup = 3.232 
[ show covariance matrix ]

Ephemeris | Orbit Diagram | Orbital Elements | Physical Parameters | Discovery Circumstances | Close-Approach Data ]

Physical Parameter Table
Parameter Symbol Value Units Sigma Reference Notes
absolute magnitude H 13.3 mag n/a PDS3 (MPC 34773)  

10812 Grötlingbo           Discovered 1993 Mar. 21 at the European Southern Observatory in the course of the Uppsala-ESO Survey of Asteroids and Comets.
In the small parish of Grötlingbo on southern Gotland there is a well-preserved farm, Kattlunds, from the Middle Ages. Its first known owner from 1412 was Botulf Kattlund.
NOTE: some special characters may not display properly (any characters within {} are an attempt to place the proper accent above a character)
Reference: 20060219/MPCPages.arcLast Updated: 2010-06-03

[ show close-approach data ]
Ephemeris | Orbit Diagram | Orbital Elements | Physical Parameters | Discovery Circumstances | Close-Approach Data ]
ABOUT SSD CREDITS/AWARDS PRIVACY/COPYRIGHT GLOSSARY LINKS
FirstGov 2014-Aug-23 13:24 UT
(server date/time)  
NASA Home Page
Site Manager:   Donald K. Yeomans
Webmaster  Alan B. Chamberlin